Location: ???? ??
(36.0534°N, 43.5630°E)
Time: 17:22:24
(UTC+00:00)

DELTA 2 R/B (1) - Pass Details

Date: 18 September 2019
Orbit: 791 x 802 km, 39.6° (Epoch: 14 October)

Event Time Altitude Azimuth Distance (km) Brightness Sun altitude
Rises 15:56:27 0° 231° (SW) 3,294 7.4 -10.3°
Reaches altitude 10° 15:58:59 10° 226° (SW) 2,365 6.5 -10.8°
Maximum altitude 16:04:23 51° 152° (SSE) 999 3.9 -11.9°
Enters shadow 16:08:45 16° 80° (E) 2,005 5.1 -12.7°
